Home > Weather > Porto Velho > Past weeks

Flag for Brazil Past Weather in Porto Velho, Rondônia, Brazil — Yesterday and Last 2 Weeks

Now
73 °F

Clear.


Feels Like: 73 °F
Forecast: 72 / 92 °F
Wind: No wind

Location: Porto Velho Aeroporto

Current Time: Jun 25, 2016 at 6:44:37 AM

Latest Report: Jun 25, 2016 at 6:00 AM


Visibility: 10 mi

Pressure: 29.92 "Hg

Humidity: 83%

Dew Point: 68 °F

Location of Porto VelhoLocation

Past Weather in Porto Velho — Graph

°F

Porto Velho Temperature Yesterday

Maximum temperature yesterday: 90 °F (at 2:00 PM)
Minimum temperature yesterday: 72 °F (at 6:00 AM)
Average temperature yesterday: 79 °F

High & Low Weather Summary for the Past Weeks

 TemperatureHumidityPressure
High90 °F (Jun 16, 2:00 PM)94% (Jun 11, 5:00 AM)30.15 "Hg (Jun 11, 5:00 AM)
Low66 °F (Jun 13, 5:00 AM)46% (Jun 19, 5:00 PM)29.86 "Hg (Jun 17, 4:00 PM)
Average78 °F74%29.99 "Hg
* Reported Jun 10 5:00 AM — Jun 25 5:00 AM, Porto Velho, Weather by CustomWeather, © 2016

Note: Actual official high and low records may vary slightly from our data, if they occured in-between our weather recording intervals... More about our weather records

Advertising

Porto Velho Weather History for the Previous 24 Hours

Scroll right to see more
 ConditionsComfort  
Time TempWeatherWind HumidityBarometerVisibility
5:00 AM
Sat, Jun 25
73 °FClear.No wind83%29.89 "Hg5 mi
4:00 AM73 °FClear.No wind83%29.89 "Hg4 mi
3:00 AM73 °FClear.No wind83%29.89 "Hg4 mi
2:00 AM73 °FClear.No wind83%29.89 "Hg5 mi
1:00 AM75 °FClear.No wind78%29.89 "Hg6 mi
12:00 AM75 °FClear.No wind74%29.92 "Hg10 mi
11:00 PM
Fri, Jun 24
75 °FClear.No wind74%29.92 "Hg10 mi
10:00 PM77 °FClear.No wind69%29.89 "Hg10 mi
9:00 PM77 °FClear.No wind69%29.89 "Hg10 mi
8:00 PM79 °FClear.1 mph65%29.86 "Hg10 mi
7:00 PM79 °FPassing clouds.No wind61%29.86 "HgN/A
6:00 PM84 °FPassing clouds.No wind55%29.86 "HgN/A
5:00 PM90 °FScattered clouds.2 mph49%29.86 "HgN/A
4:00 PM90 °FScattered clouds.6 mph52%29.86 "HgN/A
3:00 PM90 °FScattered clouds.8 mph59%29.86 "HgN/A
2:00 PM90 °FScattered clouds.9 mph67%29.89 "HgN/A
1:00 PM88 °FScattered clouds.2 mph70%29.92 "HgN/A
12:00 PM88 °FScattered clouds.8 mph75%29.95 "HgN/A
11:00 AM84 °FPassing clouds.9 mph84%29.98 "HgN/A
10:00 AM82 °FSunny.5 mph84%29.98 "Hg10 mi
9:00 AM77 °FSunny.3 mph89%29.98 "Hg10 mi
8:00 AM75 °FSunny.2 mph83%29.95 "Hg10 mi
7:00 AM72 °FSunny.No wind88%29.92 "Hg10 mi
6:00 AM72 °FClear.No wind83%29.92 "Hg10 mi
Weather by CustomWeather, © 2016

See weather overviewHow to use our weather pages